Terminal Aerodrome Forecast
Issued by NWS

Home | Current Version | Previous Version | Text Only | Print | Product List | Glossary On
Versions: 1 2 3 4 5 6 7 8 9 10 11 12 13 14 15 16 17 18 19 20 21 22 23 24 25 26 27 28 29 30 31 32 33 34 35 36 37 38 39 40 41 42 43 44 45 46 47 48 49 50
000
FTAK31 PAFC 151740
TAFASD
TAF
PASD 151740Z 1518/1618 VRB05KT P6SM -SHRA SCT014 BKN025
      TEMPO 1518/1520 -RA BKN015
     FM152000 09012G18KT P6SM VCSH BKN025
      TEMPO 1520/1524 -SHRA BKN015
     FM160000 09012KT P6SM VCSH BKN025
     AMD LTD TO CLD VIS AND WIND=

USA.gov is the U.S. government's official web portal to all federal, state and local government web resources and services.